Zurück zum Katalog

CZ-4B DEB

AktivSSO
NORAD 29539·DEBRIS·🇨🇳 China

Gestartet Apr 26, 2006 von Taiyuan Satellite Launch Center

Loading…

Nächste Überflüge (nächste 24 Stunden)

TLE

AktuellSource: Space-Track

Epoche: Sep 14, 2026, 10:11 UTC

1 29539U 06015F   26257.42457353  .00011765  00000-0  81025-3 0  9994
2 29539  97.7290 326.3684 0064945 115.8489 304.2076 15.04281591 82996

Verfolge CZ-4B DEB in Echtzeit mit AllMySat

Download on the App Store